| time (UTC) | temp C | wind direction | speed KPH | gust KPH | rain 1hr cm | rain 24hr cm | rain mn cm | humidity % | barometer mb |
| 20260508024028 | 11 | 180 | 0.0 | 1.6 | 0.00 | 0.00 | 0.00 | 56 | 1018.5 |
| 20260508023526 | 11 | 180 | 0.0 | 1.6 | 0.00 | 0.00 | 0.00 | 56 | 1018.5 |
| 20260508023023 | 11 | 180 | 0.0 | 0.0 | 0.00 | 0.00 | 0.00 | 56 | 1018.5 |
| 20260508022521 | 11 | 180 | 0.0 | 0.0 | 0.00 | 0.00 | 0.00 | 55 | 1018.5 |
| 20260508022018 | 11 | 180 | 0.0 | 0.0 | 0.00 | 0.00 | 0.00 | 55 | 1018.5 |
| 20260508021517 | 11 | 135 | 0.0 | 0.0 | 0.00 | 0.00 | 0.00 | 55 | 1018.5 |
| 20260508021014 | 11 | 45 | 0.0 | 0.0 | 0.00 | 0.00 | 0.00 | 55 | 1018.5 |
| 20260508020511 | 11 | 45 | 0.0 | 0.0 | 0.00 | 0.00 | 0.00 | 55 | 1018.5 |
| 20260508020009 | 11 | 45 | 0.0 | 0.0 | 0.00 | 0.00 | 0.00 | 54 | 1018.5 |
| 20260508015506 | 11 | 180 | 0.0 | 0.0 | 0.00 | 0.00 | 0.00 | 54 | 1018.4 |
| 20260508015004 | 12 | 180 | 0.0 | 0.0 | 0.00 | 0.00 | 0.00 | 54 | 1018.4 |
| 20260508014502 | 12 | 225 | 0.0 | 1.6 | 0.00 | 0.00 | 0.00 | 54 | 1018.4 |
| 20260508013959 | 12 | 225 | 0.0 | 38.6 | 0.00 | 0.00 | 0.00 | 54 | 1018.4 |
| 20260508013457 | 12 | 180 | 0.0 | 1.6 | 0.00 | 0.00 | 0.00 | 54 | 1018.4 |
| 20260508012954 | 12 | 180 | 0.0 | 0.0 | 0.00 | 0.00 | 0.00 | 53 | 1018.4 |
| 20260508011949 | 13 | 180 | 0.0 | 1.6 | 0.00 | 0.00 | 0.00 | 53 | 1018.3 |
| 20260508011447 | 13 | 180 | 0.0 | 1.6 | 0.00 | 0.00 | 0.00 | 53 | 1018.2 |
| 20260508010442 | 13 | 180 | 0.0 | 1.6 | 0.00 | 0.00 | 0.00 | 53 | 1018.1 |
| 20260508005940 | 13 | 225 | 0.0 | 30.6 | 0.00 | 0.00 | 0.00 | 52 | 1018.1 |
| 20260508005437 | 13 | 180 | 1.6 | 16.1 | 0.00 | 0.00 | 0.00 | 52 | 1018.1 |
| 20260508004935 | 13 | 225 | 0.0 | 40.2 | 0.00 | 0.00 | 0.00 | 52 | 1018.1 |
| 20260508004433 | 13 | 225 | 1.6 | 3.2 | 0.00 | 0.00 | 0.00 | 52 | 1018.1 |
| 20260508003930 | 13 | 180 | 1.6 | 37.0 | 0.00 | 0.00 | 0.00 | 52 | 1018.1 |
| 20260508003428 | 13 | 180 | 0.0 | 32.2 | 0.00 | 0.00 | 0.00 | 52 | 1018.1 |
| 20260508002925 | 14 | 180 | 0.0 | 33.8 | 0.00 | 0.00 | 0.00 | 52 | 1018.2 |
| 20260508002423 | 14 | 225 | 1.6 | 17.7 | 0.00 | 0.00 | 0.00 | 51 | 1018.2 |
| 20260508001921 | 14 | 225 | 1.6 | 35.4 | 0.00 | 0.00 | 0.00 | 51 | 1018.2 |
| 20260508001418 | 14 | 225 | 1.6 | 14.5 | 0.00 | 0.00 | 0.00 | 51 | 1018.2 |
| 20260508000916 | 14 | 225 | 1.6 | 4.8 | 0.00 | 0.00 | 0.00 | 51 | 1018.1 |
| 20260508000413 | 14 | 225 | 1.6 | 40.2 | 0.00 | 0.00 | 0.00 | 51 | 1018.1 |
| 20260507235408 | 15 | 180 | 3.2 | 37.0 | 0.00 | 0.00 | 0.00 | 51 | 1018.2 |
| 20260507234906 | 15 | 225 | 1.6 | 35.4 | 0.00 | 0.00 | 0.00 | 50 | 1018.2 |
| 20260507234404 | 15 | 225 | 1.6 | 19.3 | 0.00 | 0.00 | 0.00 | 50 | 1018.2 |
| 20260507233359 | 15 | 225 | 4.8 | 43.5 | 0.00 | 0.00 | 0.00 | 50 | 1018.3 |
| 20260507232856 | 15 | 225 | 3.2 | 40.2 | 0.00 | 0.00 | 0.00 | 50 | 1018.3 |
| 20260507232354 | 15 | 180 | 1.6 | 41.8 | 0.00 | 0.00 | 0.00 | 50 | 1018.3 |
| 20260507231852 | 15 | 180 | 1.6 | 38.6 | 0.00 | 0.00 | 0.00 | 49 | 1018.3 |
| 20260507231349 | 15 | 225 | 3.2 | 33.8 | 0.00 | 0.00 | 0.00 | 49 | 1018.3 |
| 20260507230847 | 15 | 225 | 1.6 | 43.5 | 0.00 | 0.00 | 0.00 | 49 | 1018.4 |
| 20260507230344 | 15 | 180 | 3.2 | 37.0 | 0.00 | 0.00 | 0.00 | 49 | 1018.3 |
| 20260507225842 | 15 | 180 | 1.6 | 30.6 | 0.00 | 0.00 | 0.00 | 49 | 1018.4 |
| 20260507225340 | 15 | 225 | 4.8 | 38.6 | 0.00 | 0.00 | 0.00 | 48 | 1018.4 |
| 20260507224837 | 15 | 180 | 3.2 | 27.4 | 0.00 | 0.00 | 0.00 | 48 | 1018.3 |
| 20260507224335 | 15 | 180 | 0.0 | 22.5 | 0.00 | 0.00 | 0.00 | 48 | 1018.3 |
| 20260507223832 | 16 | 180 | 0.0 | 37.0 | 0.00 | 0.00 | 0.00 | 48 | 1018.3 |
| 20260507223330 | 16 | 180 | 3.2 | 32.2 | 0.00 | 0.00 | 0.00 | 48 | 1018.2 |
| 20260507222827 | 16 | 180 | 0.0 | 43.5 | 0.00 | 0.00 | 0.00 | 47 | 1018.1 |
| 20260507222325 | 16 | 180 | 1.6 | 72.4 | 0.00 | 0.00 | 0.00 | 47 | 1017.9 |
| 20260507221823 | 16 | 180 | 1.6 | 40.2 | 0.00 | 0.00 | 0.00 | 47 | 1017.9 |
| 20260507221320 | 16 | 180 | 35.4 | 35.4 | 0.00 | 0.00 | 0.00 | 47 | 1017.8 |
| 20260507220818 | 16 | 180 | 0.0 | 29.0 | 0.00 | 0.00 | 0.00 | 47 | 1017.9 |
| 20260507220315 | 16 | 225 | 0.0 | 37.0 | 0.00 | 0.00 | 0.00 | 46 | 1017.8 |
| 20260507215813 | 16 | 180 | 0.0 | 32.2 | 0.00 | 0.00 | 0.00 | 46 | 1017.8 |
| 20260507215311 | 16 | 180 | 1.6 | 35.4 | 0.00 | 0.00 | 0.00 | 46 | 1017.7 |
| 20260507214808 | 16 | 225 | 49.9 | 49.9 | 0.00 | 0.00 | 0.00 | 46 | 1017.7 |
| 20260507214306 | 16 | 180 | 29.0 | 29.0 | 0.00 | 0.00 | 0.00 | 45 | 1017.7 |
| 20260507213803 | 16 | 225 | 1.6 | 35.4 | 0.00 | 0.00 | 0.00 | 45 | 1017.7 |
| 20260507213301 | 16 | 225 | 0.0 | 4.8 | 0.00 | 0.00 | 0.00 | 45 | 1017.7 |
| 20260507212759 | 17 | 180 | 37.0 | 57.9 | 0.00 | 0.00 | 0.00 | 45 | 1017.7 |
| 20260507212256 | 17 | 180 | 1.6 | 33.8 | 0.00 | 0.00 | 0.00 | 44 | 1017.6 |
| 20260507211251 | 17 | 180 | 0.0 | 33.8 | 0.00 | 0.00 | 0.00 | 44 | 1017.6 |
| 20260507210749 | 17 | 180 | 0.0 | 35.4 | 0.00 | 0.00 | 0.00 | 44 | 1017.5 |
| 20260507210246 | 17 | 180 | 0.0 | 37.0 | 0.00 | 0.00 | 0.00 | 44 | 1017.5 |
| 20260507205744 | 17 | 180 | 35.4 | 35.4 | 0.00 | 0.00 | 0.00 | 44 | 1017.4 |
| 20260507205242 | 17 | 225 | 0.0 | 33.8 | 0.00 | 0.00 | 0.00 | 44 | 1017.4 |
| 20260507204739 | 17 | 180 | 0.0 | 3.2 | 0.00 | 0.00 | 0.00 | 44 | 1017.4 |
| 20260507204237 | 17 | 225 | 1.6 | 3.2 | 0.00 | 0.00 | 0.00 | 44 | 1017.3 |
| 20260507203734 | 17 | 225 | 0.0 | 35.4 | 0.00 | 0.00 | 0.00 | 43 | 1017.2 |
| 20260507203232 | 17 | 180 | 0.0 | 33.8 | 0.00 | 0.00 | 0.00 | 43 | 1017.1 |
| 20260507202730 | 17 | 180 | 0.0 | 1.6 | 0.00 | 0.00 | 0.00 | 43 | 1017.1 |
| 20260507202227 | 17 | 180 | 0.0 | 6.4 | 0.00 | 0.00 | 0.00 | 43 | 1017.0 |
| 20260507201725 | 17 | 180 | 1.6 | 37.0 | 0.00 | 0.00 | 0.00 | 43 | 1017.0 |
| 20260507201222 | 17 | 180 | 1.6 | 32.2 | 0.00 | 0.00 | 0.00 | 43 | 1016.9 |
| 20260507200720 | 17 | 225 | 0.0 | 30.6 | 0.00 | 0.00 | 0.00 | 43 | 1016.9 |
| 20260507200217 | 18 | 180 | 0.0 | 37.0 | 0.00 | 0.00 | 0.00 | 43 | 1016.9 |
| 20260507195715 | 18 | 180 | 1.6 | 3.2 | 0.00 | 0.00 | 0.00 | 43 | 1016.9 |
| 20260507195213 | 18 | 225 | 0.0 | 35.4 | 0.00 | 0.00 | 0.00 | 43 | 1016.8 |
| 20260507194710 | 18 | 225 | 0.0 | 33.8 | 0.00 | 0.00 | 0.00 | 43 | 1016.8 |
| 20260507194208 | 18 | 180 | 3.2 | 43.5 | 0.00 | 0.00 | 0.00 | 43 | 1016.7 |
| 20260507193705 | 17 | 225 | 1.6 | 9.7 | 0.00 | 0.00 | 0.00 | 43 | 1016.7 |
| 20260507193203 | 17 | 180 | 0.0 | 33.8 | 0.00 | 0.00 | 0.00 | 43 | 1016.7 |
| 20260507192701 | 17 | 180 | 0.0 | 0.0 | 0.00 | 0.00 | 0.00 | 43 | 1016.6 |
| 20260507192158 | 17 | 180 | 0.0 | 0.0 | 0.00 | 0.00 | 0.00 | 42 | 1016.6 |
| 20260507191656 | 17 | 225 | 0.0 | 1.6 | 0.00 | 0.00 | 0.00 | 42 | 1016.5 |
| 20260507191153 | 18 | 180 | 0.0 | 1.6 | 0.00 | 0.00 | 0.00 | 42 | 1016.5 |
| 20260507190651 | 18 | 225 | 0.0 | 27.4 | 0.00 | 0.00 | 0.00 | 42 | 1016.5 |
| 20260507190149 | 18 | 180 | 0.0 | 37.0 | 0.00 | 0.00 | 0.00 | 41 | 1016.4 |
| 20260507185646 | 18 | 180 | 0.0 | 35.4 | 0.00 | 0.00 | 0.00 | 41 | 1016.4 |
| 20260507185144 | 18 | 180 | 0.0 | 32.2 | 0.00 | 0.00 | 0.00 | 40 | 1016.3 |
| 20260507184641 | 18 | 225 | 30.6 | 37.0 | 0.00 | 0.00 | 0.00 | 39 | 1016.2 |
| 20260507184139 | 18 | 225 | 0.0 | 20.9 | 0.00 | 0.00 | 0.00 | 39 | 1016.1 |
| 20260507183134 | 18 | 180 | 1.6 | 8.0 | 0.00 | 0.00 | 0.00 | 39 | 1016.1 |
| 20260507182632 | 18 | 180 | 0.0 | 32.2 | 0.00 | 0.00 | 0.00 | 38 | 1016.0 |
| 20260507182129 | 18 | 180 | 1.6 | 4.8 | 0.00 | 0.00 | 0.00 | 38 | 1015.9 |
| 20260507181627 | 19 | 225 | 0.0 | 19.3 | 0.00 | 0.00 | 0.00 | 38 | 1015.9 |
| 20260507181124 | 19 | 225 | 0.0 | 29.0 | 0.00 | 0.00 | 0.00 | 38 | 1015.8 |
| 20260507180622 | 19 | 180 | 0.0 | 37.0 | 0.00 | 0.00 | 0.00 | 37 | 1015.8 |
| 20260507180120 | 19 | 225 | 0.0 | 33.8 | 0.00 | 0.00 | 0.00 | 37 | 1015.8 |
| 20260507175617 | 19 | 225 | 0.0 | 30.6 | 0.00 | 0.00 | 0.00 | 37 | 1015.7 |
| 20260507175115 | 19 | 180 | 0.0 | 14.5 | 0.00 | 0.00 | 0.00 | 37 | 1015.7 |
| 20260507174612 | 19 | 270 | 1.6 | 30.6 | 0.00 | 0.00 | 0.00 | 37 | 1015.6 |
| 20260507174110 | 20 | 180 | 0.0 | 38.6 | 0.00 | 0.00 | 0.00 | 37 | 1015.6 |
| 20260507173608 | 20 | 180 | 3.2 | 32.2 | 0.00 | 0.00 | 0.00 | 36 | 1015.5 |
| 20260507173105 | 20 | 180 | 3.2 | 38.6 | 0.00 | 0.00 | 0.00 | 36 | 1015.4 |
| 20260507172603 | 20 | 270 | 1.6 | 37.0 | 0.00 | 0.00 | 0.00 | 36 | 1015.4 |
| 20260507172100 | 20 | 225 | 4.8 | 25.7 | 0.00 | 0.00 | 0.00 | 35 | 1015.3 |
| 20260507171558 | 20 | 180 | 1.6 | 35.4 | 0.00 | 0.00 | 0.00 | 35 | 1015.2 |
| 20260507171056 | 20 | 180 | 1.6 | 12.9 | 0.00 | 0.00 | 0.00 | 35 | 1015.1 |
| 20260507170553 | 20 | 180 | 3.2 | 3.2 | 0.00 | 0.00 | 0.00 | 34 | 1015.0 |
| 20260507170051 | 20 | 180 | 1.6 | 70.8 | 0.00 | 0.00 | 0.00 | 34 | 1015.0 |
| 20260507165548 | 20 | 135 | 4.8 | 32.2 | 0.00 | 0.00 | 0.00 | 34 | 1014.9 |
| 20260507165046 | 21 | 180 | 30.6 | 32.2 | 0.00 | 0.00 | 0.00 | 34 | 1014.9 |
| 20260507164543 | 21 | 225 | 3.2 | 35.4 | 0.00 | 0.00 | 0.00 | 34 | 1014.8 |
| 20260507164041 | 21 | 180 | 0.0 | 35.4 | 0.00 | 0.00 | 0.00 | 33 | 1014.8 |
| 20260507163539 | 21 | 180 | 0.0 | 6.4 | 0.00 | 0.00 | 0.00 | 33 | 1014.8 |
| 20260507163036 | 21 | 180 | 1.6 | 33.8 | 0.00 | 0.00 | 0.00 | 33 | 1014.6 |
| 20260507162534 | 21 | 225 | 1.6 | 35.4 | 0.00 | 0.00 | 0.00 | 33 | 1014.6 |
| 20260507162031 | 21 | 180 | 1.6 | 30.6 | 0.00 | 0.00 | 0.00 | 32 | 1014.6 |
| 20260507161529 | 21 | 180 | 4.8 | 30.6 | 0.00 | 0.00 | 0.00 | 32 | 1014.6 |
| 20260507161027 | 22 | 180 | 6.4 | 40.2 | 0.00 | 0.00 | 0.00 | 32 | 1014.5 |
| 20260507160524 | 22 | 225 | 6.4 | 37.0 | 0.00 | 0.00 | 0.00 | 32 | 1014.5 |
| 20260507160022 | 22 | 225 | 1.6 | 40.2 | 0.00 | 0.00 | 0.00 | 32 | 1014.5 |
| 20260507155519 | 22 | 225 | 6.4 | 38.6 | 0.00 | 0.00 | 0.00 | 32 | 1014.4 |
| 20260507155017 | 22 | 180 | 11.3 | 49.9 | 0.00 | 0.00 | 0.00 | 31 | 1014.3 |
| 20260507154514 | 22 | 180 | 3.2 | 35.4 | 0.00 | 0.00 | 0.00 | 31 | 1014.5 |
| 20260507154012 | 22 | 180 | 3.2 | 51.5 | 0.00 | 0.00 | 0.00 | 31 | 1014.5 |
| 20260507153510 | 22 | 225 | 3.2 | 35.4 | 0.00 | 0.00 | 0.00 | 31 | 1014.5 |
| 20260507153007 | 22 | 225 | 1.6 | 33.8 | 0.00 | 0.00 | 0.00 | 31 | 1014.5 |
| 20260507152505 | 22 | 225 | 3.2 | 25.7 | 0.00 | 0.00 | 0.00 | 31 | 1014.3 |
| 20260507152002 | 22 | 180 | 1.6 | 33.8 | 0.00 | 0.00 | 0.00 | 30 | 1014.2 |
| 20260507151500 | 23 | 180 | 1.6 | 32.2 | 0.00 | 0.00 | 0.00 | 30 | 1014.1 |
| 20260507150455 | 23 | 225 | 3.2 | 11.3 | 0.00 | 0.00 | 0.00 | 30 | 1014.2 |
| 20260507145953 | 23 | 225 | 3.2 | 33.8 | 0.00 | 0.00 | 0.00 | 30 | 1014.1 |
| 20260507145450 | 23 | 180 | 1.6 | 35.4 | 0.00 | 0.00 | 0.00 | 30 | 1014.2 |
| 20260507144948 | 23 | 225 | 3.2 | 32.2 | 0.00 | 0.00 | 0.00 | 30 | 1014.1 |
| 20260507144446 | 23 | 180 | 3.2 | 32.2 | 0.00 | 0.00 | 0.00 | 30 | 1014.1 |
| 20260507143441 | 23 | 180 | 0.0 | 35.4 | 0.00 | 0.00 | 0.00 | 30 | 1014.2 |
| 20260507142938 | 23 | 180 | 3.2 | 37.0 | 0.00 | 0.00 | 0.00 | 29 | 1014.2 |
| 20260507142436 | 23 | 225 | 14.5 | 32.2 | 0.00 | 0.00 | 0.00 | 29 | 1014.1 |
| 20260507141933 | 23 | 225 | 37.0 | 37.0 | 0.00 | 0.00 | 0.00 | 29 | 1014.2 |
| 20260507141431 | 24 | 180 | 1.6 | 38.6 | 0.00 | 0.00 | 0.00 | 29 | 1014.1 |
| 20260507140929 | 25 | 225 | 0.0 | 17.7 | 0.00 | 0.00 | 0.00 | 28 | 1014.1 |
| 20260507135924 | 27 | 270 | 0.0 | 27.4 | 0.00 | 0.00 | 0.00 | 29 | 1014.0 |
| 20260507135421 | 25 | 225 | 0.0 | 32.2 | 0.00 | 0.00 | 0.00 | 28 | 1014.1 |
| 20260507134919 | 26 | 180 | 1.6 | 32.2 | 0.00 | 0.00 | 0.00 | 27 | 1014.0 |
| 20260507134417 | 26 | 225 | 0.0 | 37.0 | 0.00 | 0.00 | 0.00 | 29 | 1014.0 |
| 20260507133914 | 26 | 180 | 1.6 | 35.4 | 0.00 | 0.00 | 0.00 | 28 | 1014.0 |
| 20260507133412 | 27 | 180 | 4.8 | 35.4 | 0.00 | 0.00 | 0.00 | 28 | 1014.1 |
| 20260507132909 | 25 | 270 | 1.6 | 37.0 | 0.00 | 0.00 | 0.00 | 28 | 1014.0 |
| 20260507132407 | 26 | 225 | 1.6 | 33.8 | 0.00 | 0.00 | 0.00 | 29 | 1014.1 |
| 20260507131906 | 26 | 225 | 22.5 | 33.8 | 0.00 | 0.00 | 0.00 | 28 | 1014.2 |
| 20260507131402 | 26 | 315 | 0.0 | 32.2 | 0.00 | 0.00 | 0.00 | 28 | 1014.3 |
| 20260507130900 | 27 | 225 | 0.0 | 33.8 | 0.00 | 0.00 | 0.00 | 28 | 1014.3 |
| 20260507130357 | 30 | 225 | 16.1 | 27.4 | 0.00 | 0.00 | 0.00 | 26 | 1014.4 |
| 20260507125855 | 28 | 180 | 1.6 | 9.7 | 0.00 | 0.00 | 0.00 | 29 | 1014.3 |
| 20260507125352 | 27 | 180 | 3.2 | 37.0 | 0.00 | 0.00 | 0.00 | 28 | 1014.3 |
| 20260507124850 | 29 | 315 | 0.0 | 33.8 | 0.00 | 0.00 | 0.00 | 28 | 1014.3 |
| 20260507124348 | 31 | 270 | 3.2 | 24.1 | 0.00 | 0.00 | 0.00 | 27 | 1014.3 |
| 20260507123845 | 28 | 0 | 3.2 | 29.0 | 0.00 | 0.00 | 0.00 | 29 | 1014.4 |
| 20260507123343 | 25 | 225 | 1.6 | 35.4 | 0.00 | 0.00 | 0.00 | 30 | 1014.4 |
| 20260507122840 | 26 | 225 | 6.4 | 29.0 | 0.00 | 0.00 | 0.00 | 29 | 1014.4 |
| 20260507122338 | 27 | 0 | 0.0 | 12.9 | 0.00 | 0.00 | 0.00 | 29 | 1014.5 |
| 20260507121836 | 26 | 225 | 0.0 | 33.8 | 0.00 | 0.00 | 0.00 | 30 | 1014.5 |
| 20260507121333 | 26 | 270 | 1.6 | 35.4 | 0.00 | 0.00 | 0.00 | 32 | 1014.6 |
| 20260507120831 | 26 | 180 | 1.6 | 35.4 | 0.00 | 0.00 | 0.00 | 30 | 1014.5 |
| 20260507120328 | 27 | 270 | 1.6 | 25.7 | 0.00 | 0.00 | 0.00 | 29 | 1014.6 |
| 20260507115826 | 29 | 225 | 3.2 | 29.0 | 0.00 | 0.00 | 0.00 | 30 | 1014.6 |
| 20260507115323 | 29 | 225 | 0.0 | 41.8 | 0.00 | 0.00 | 0.00 | 31 | 1014.7 |
| 20260507114821 | 28 | 225 | 3.2 | 24.1 | 0.00 | 0.00 | 0.00 | 31 | 1014.7 |
| 20260507114319 | 28 | 225 | 3.2 | 27.4 | 0.00 | 0.00 | 0.00 | 31 | 1014.9 |
| 20260507113816 | 28 | 0 | 0.0 | 32.2 | 0.00 | 0.00 | 0.00 | 33 | 1014.8 |
| 20260507113314 | 28 | 180 | 3.2 | 32.2 | 0.00 | 0.00 | 0.00 | 32 | 1014.9 |
| 20260507112811 | 27 | 315 | 1.6 | 32.2 | 0.00 | 0.00 | 0.00 | 33 | 1014.9 |
| 20260507112309 | 26 | 225 | 4.8 | 19.3 | 0.00 | 0.00 | 0.00 | 33 | 1014.8 |
| 20260507111807 | 26 | 180 | 1.6 | 37.0 | 0.00 | 0.00 | 0.00 | 34 | 1015.0 |
| 20260507111304 | 24 | 225 | 4.8 | 9.7 | 0.00 | 0.00 | 0.00 | 34 | 1015.0 |
| 20260507110802 | 23 | 225 | 3.2 | 11.3 | 0.00 | 0.00 | 0.00 | 34 | 1015.1 |
| 20260507110259 | 23 | 180 | 11.3 | 33.8 | 0.00 | 0.00 | 0.00 | 34 | 1015.1 |
| 20260507105757 | 23 | 180 | 4.8 | 35.4 | 0.00 | 0.00 | 0.00 | 35 | 1015.1 |
| 20260507105255 | 23 | 225 | 19.3 | 37.0 | 0.00 | 0.00 | 0.00 | 35 | 1015.2 |
| 20260507104752 | 23 | 180 | 4.8 | 40.2 | 0.00 | 0.00 | 0.00 | 35 | 1015.2 |
| 20260507104250 | 23 | 225 | 6.4 | 32.2 | 0.00 | 0.00 | 0.00 | 35 | 1015.3 |
| 20260507103747 | 24 | 270 | 8.0 | 67.6 | 0.00 | 0.00 | 0.00 | 34 | 1015.4 |
| 20260507103245 | 25 | 270 | 3.2 | 32.2 | 0.00 | 0.00 | 0.00 | 35 | 1015.4 |
| 20260507102742 | 26 | 225 | 3.2 | 29.0 | 0.00 | 0.00 | 0.00 | 37 | 1015.5 |
| 20260507102240 | 23 | 180 | 1.6 | 37.0 | 0.00 | 0.00 | 0.00 | 37 | 1015.6 |
| 20260507101235 | 22 | 225 | 3.2 | 38.6 | 0.00 | 0.00 | 0.00 | 36 | 1015.5 |
| 20260507100733 | 22 | 225 | 14.5 | 35.4 | 0.00 | 0.00 | 0.00 | 37 | 1015.6 |
| 20260507100230 | 22 | 225 | 59.5 | 59.5 | 0.00 | 0.00 | 0.00 | 37 | 1015.6 |
| 20260507095728 | 22 | 270 | 3.2 | 40.2 | 0.00 | 0.00 | 0.00 | 36 | 1015.5 |
| 20260507095226 | 23 | 180 | 0.0 | 30.6 | 0.00 | 0.00 | 0.00 | 37 | 1015.4 |
| 20260507094723 | 23 | 315 | 1.6 | 33.8 | 0.00 | 0.00 | 0.00 | 37 | 1015.4 |
| 20260507094221 | 22 | 225 | 4.8 | 38.6 | 0.00 | 0.00 | 0.00 | 38 | 1015.5 |
| 20260507093718 | 22 | 225 | 4.8 | 43.5 | 0.00 | 0.00 | 0.00 | 38 | 1015.5 |
| 20260507093216 | 22 | 0 | 1.6 | 35.4 | 0.00 | 0.00 | 0.00 | 38 | 1015.5 |
| 20260507092714 | 22 | 225 | 0.0 | 41.8 | 0.00 | 0.00 | 0.00 | 38 | 1015.6 |
| 20260507092211 | 22 | 180 | 6.4 | 41.8 | 0.00 | 0.00 | 0.00 | 38 | 1015.4 |
| 20260507091709 | 23 | 180 | 38.6 | 38.6 | 0.00 | 0.00 | 0.00 | 39 | 1015.6 |
| 20260507091206 | 23 | 225 | 35.4 | 37.0 | 0.00 | 0.00 | 0.00 | 40 | 1015.6 |
| 20260507090704 | 21 | 315 | 1.6 | 37.0 | 0.00 | 0.00 | 0.00 | 40 | 1015.4 |
| 20260507090201 | 21 | 225 | 3.2 | 40.2 | 0.00 | 0.00 | 0.00 | 39 | 1015.4 |
| 20260507085659 | 22 | 225 | 3.2 | 40.2 | 0.00 | 0.00 | 0.00 | 40 | 1015.4 |
| 20260507085157 | 22 | 270 | 1.6 | 38.6 | 0.00 | 0.00 | 0.00 | 39 | 1015.3 |
| 20260507084654 | 23 | 225 | 1.6 | 27.4 | 0.00 | 0.00 | 0.00 | 42 | 1015.2 |
| 20260507084152 | 21 | 180 | 40.2 | 40.2 | 0.00 | 0.00 | 0.00 | 42 | 1015.1 |
| 20260507083650 | 21 | 180 | 3.2 | 37.0 | 0.00 | 0.00 | 0.00 | 41 | 1015.1 |
| 20260507083147 | 21 | 135 | 4.8 | 40.2 | 0.00 | 0.00 | 0.00 | 41 | 1015.1 |
| 20260507082645 | 22 | 180 | 1.6 | 37.0 | 0.00 | 0.00 | 0.00 | 43 | 1015.0 |
| 20260507082142 | 21 | 180 | 1.6 | 37.0 | 0.00 | 0.00 | 0.00 | 43 | 1015.0 |
| 20260507081640 | 21 | 225 | 1.6 | 33.8 | 0.00 | 0.00 | 0.00 | 43 | 1015.0 |
| 20260507081137 | 21 | 225 | 1.6 | 41.8 | 0.00 | 0.00 | 0.00 | 44 | 1015.0 |
| 20260507080635 | 20 | 225 | 6.4 | 46.7 | 0.00 | 0.00 | 0.00 | 44 | 1014.9 |
| 20260507080133 | 20 | 315 | 4.8 | 67.6 | 0.00 | 0.00 | 0.00 | 44 | 1015.0 |
| 20260507075630 | 20 | 270 | 3.2 | 43.5 | 0.00 | 0.00 | 0.00 | 44 | 1014.9 |
| 20260507075128 | 20 | 270 | 8.0 | 72.4 | 0.00 | 0.00 | 0.00 | 44 | 1014.8 |
| 20260507074625 | 20 | 225 | 3.2 | 38.6 | 0.00 | 0.00 | 0.00 | 45 | 1014.9 |
| 20260507074123 | 19 | 180 | 4.8 | 41.8 | 0.00 | 0.00 | 0.00 | 45 | 1015.0 |
| 20260507073620 | 19 | 225 | 8.0 | 41.8 | 0.00 | 0.00 | 0.00 | 45 | 1014.8 |
| 20260507073118 | 19 | 270 | 0.0 | 38.6 | 0.00 | 0.00 | 0.00 | 46 | 1014.9 |
| 20260507072616 | 19 | 225 | 3.2 | 37.0 | 0.00 | 0.00 | 0.00 | 46 | 1014.8 |
| 20260507072113 | 19 | 225 | 4.8 | 43.5 | 0.00 | 0.00 | 0.00 | 45 | 1014.7 |
| 20260507071611 | 19 | 270 | 3.2 | 72.4 | 0.00 | 0.00 | 0.00 | 46 | 1014.6 |
| 20260507071108 | 19 | 225 | 1.6 | 40.2 | 0.00 | 0.00 | 0.00 | 46 | 1014.7 |
| 20260507070606 | 19 | 180 | 4.8 | 41.8 | 0.00 | 0.00 | 0.00 | 46 | 1014.5 |
| 20260507070104 | 19 | 225 | 1.6 | 43.5 | 0.00 | 0.00 | 0.00 | 47 | 1014.5 |
| 20260507065601 | 19 | 180 | 8.0 | 48.3 | 0.00 | 0.00 | 0.00 | 46 | 1014.5 |
| 20260507065059 | 19 | 225 | 4.8 | 46.7 | 0.00 | 0.00 | 0.00 | 47 | 1014.6 |
| 20260507064556 | 19 | 180 | 37.0 | 38.6 | 0.00 | 0.00 | 0.00 | 48 | 1014.6 |
| 20260507064054 | 18 | 225 | 17.7 | 51.5 | 0.00 | 0.00 | 0.00 | 48 | 1014.6 |
| 20260507063552 | 18 | 225 | 8.0 | 67.6 | 0.00 | 0.00 | 0.00 | 48 | 1014.5 |
| 20260507063049 | 18 | 180 | 3.2 | 38.6 | 0.00 | 0.00 | 0.00 | 48 | 1014.5 |
| 20260507062547 | 18 | 180 | 1.6 | 37.0 | 0.00 | 0.00 | 0.00 | 49 | 1014.5 |
| 20260507062044 | 17 | 180 | 3.2 | 46.7 | 0.00 | 0.00 | 0.00 | 49 | 1014.3 |
| 20260507061542 | 17 | 225 | 3.2 | 41.8 | 0.00 | 0.00 | 0.00 | 49 | 1014.3 |
| 20260507061039 | 17 | 180 | 8.0 | 46.7 | 0.00 | 0.00 | 0.00 | 49 | 1014.2 |
| 20260507060537 | 17 | 225 | 1.6 | 38.6 | 0.00 | 0.00 | 0.00 | 49 | 1014.3 |
| 20260507060035 | 17 | 225 | 27.4 | 74.0 | 0.00 | 0.00 | 0.00 | 49 | 1014.3 |
| 20260507055532 | 17 | 180 | 3.2 | 29.0 | 0.00 | 0.00 | 0.00 | 49 | 1014.3 |
| 20260507055030 | 17 | 225 | 1.6 | 38.6 | 0.00 | 0.00 | 0.00 | 49 | 1014.2 |
| 20260507054527 | 17 | 180 | 1.6 | 17.7 | 0.00 | 0.00 | 0.00 | 49 | 1014.2 |
| 20260507054025 | 17 | 180 | 0.0 | 41.8 | 0.00 | 0.00 | 0.00 | 50 | 1014.1 |
| 20260507053523 | 17 | 180 | 3.2 | 37.0 | 0.00 | 0.00 | 0.00 | 50 | 1014.0 |
| 20260507053020 | 17 | 225 | 3.2 | 70.8 | 0.00 | 0.00 | 0.00 | 50 | 1013.9 |
| 20260507052518 | 17 | 180 | 1.6 | 43.5 | 0.00 | 0.00 | 0.00 | 50 | 1013.9 |
| 20260507052015 | 17 | 225 | 4.8 | 41.8 | 0.00 | 0.00 | 0.00 | 50 | 1013.8 |
| 20260507051513 | 17 | 225 | 27.4 | 40.2 | 0.00 | 0.00 | 0.00 | 50 | 1013.9 |
| 20260507051010 | 17 | 180 | 3.2 | 40.2 | 0.00 | 0.00 | 0.00 | 50 | 1013.9 |
| 20260507050508 | 17 | 225 | 1.6 | 35.4 | 0.00 | 0.00 | 0.00 | 50 | 1013.8 |
| 20260507050006 | 17 | 315 | 0.0 | 43.5 | 0.00 | 0.00 | 0.00 | 50 | 1013.8 |
| 20260507045503 | 17 | 180 | 0.0 | 1.6 | 0.00 | 0.00 | 0.00 | 50 | 1013.8 |
| 20260507045001 | 16 | 180 | 0.0 | 37.0 | 0.00 | 0.00 | 0.00 | 50 | 1013.8 |
| 20260507044458 | 16 | 315 | 0.0 | 38.6 | 0.00 | 0.00 | 0.00 | 50 | 1013.6 |
| 20260507043956 | 16 | 180 | 0.0 | 41.8 | 0.00 | 0.00 | 0.00 | 50 | 1013.6 |
| 20260507043454 | 16 | 225 | 1.6 | 37.0 | 0.00 | 0.00 | 0.00 | 50 | 1013.7 |
| 20260507042951 | 16 | 315 | 0.0 | 3.2 | 0.00 | 0.00 | 0.00 | 50 | 1013.6 |
| 20260507042449 | 16 | 180 | 0.0 | 17.7 | 0.00 | 0.00 | 0.00 | 50 | 1013.5 |
| 20260507041946 | 16 | 180 | 0.0 | 46.7 | 0.00 | 0.00 | 0.00 | 50 | 1013.5 |
| 20260507041444 | 16 | 180 | 0.0 | 37.0 | 0.00 | 0.00 | 0.00 | 50 | 1013.4 |
| 20260507040942 | 16 | 225 | 3.2 | 40.2 | 0.00 | 0.00 | 0.00 | 50 | 1013.3 |
| 20260507040439 | 16 | 225 | 1.6 | 35.4 | 0.00 | 0.00 | 0.00 | 50 | 1013.2 |
| 20260507035937 | 16 | 225 | 3.2 | 3.2 | 0.00 | 0.00 | 0.00 | 50 | 1013.1 |
| 20260507035434 | 16 | 180 | 0.0 | 3.2 | 0.00 | 0.00 | 0.00 | 50 | 1013.1 |
| 20260507034932 | 16 | 180 | 0.0 | 37.0 | 0.00 | 0.00 | 0.00 | 50 | 1013.1 |
| 20260507034429 | 16 | 180 | 9.7 | 37.0 | 0.00 | 0.00 | 0.00 | 50 | 1013.1 |
| 20260507033927 | 16 | 180 | 0.0 | 30.6 | 0.00 | 0.00 | 0.00 | 50 | 1013.0 |
| 20260507033425 | 16 | 180 | 0.0 | 41.8 | 0.00 | 0.00 | 0.00 | 50 | 1013.0 |
| 20260507032922 | 16 | 135 | 0.0 | 37.0 | 0.00 | 0.00 | 0.00 | 50 | 1012.9 |
| 20260507032420 | 16 | 225 | 1.6 | 53.1 | 0.00 | 0.00 | 0.00 | 50 | 1012.9 |
| 20260507031917 | 16 | 315 | 0.0 | 40.2 | 0.00 | 0.00 | 0.00 | 50 | 1012.8 |
| 20260507031415 | 16 | 225 | 1.6 | 38.6 | 0.00 | 0.00 | 0.00 | 50 | 1012.7 |
| 20260507030913 | 16 | 180 | 1.6 | 27.4 | 0.00 | 0.00 | 0.00 | 50 | 1012.7 |
| 20260507030410 | 16 | 180 | 1.6 | 45.1 | 0.00 | 0.00 | 0.00 | 50 | 1012.7 |
| 20260507025908 | 16 | 225 | 0.0 | 40.2 | 0.00 | 0.00 | 0.00 | 50 | 1012.6 |
| 20260507024903 | 16 | 180 | 0.0 | 46.7 | 0.00 | 0.00 | 0.00 | 50 | 1012.6 |
| 20260507024401 | 16 | 180 | 6.4 | 37.0 | 0.00 | 0.00 | 0.00 | 50 | 1012.5 |